Meath Environmental Platform

Observations for Trim Market St

Time AQI Temp °C Hum % Pres Pa CO μg/m³ H₂S μg/m³ NO μg/m³ NO₂ μg/m³ O₃ μg/m³ SO₂ μg/m³ PM1 μg/m³ PM2.5 μg/m³ PM10 μg/m³
Tuesday 14 July 2026
22:07 1 20.1 56 57,899 0 0 0 10.2 27.2 0 4.99 8.79 12.51
22:06 1 20.2 56 57,883 0 0 0 10.19 26.28 0 4.99 8.29 11.8
22:05 1 20.2 56 57,864 0 0 0 10.1 24.6 0 5.7 8.3 13.23
22:04 1 20.2 56 57,843 0 0 0 11.5 24.88 0 4.28 9.82 14.66
22:02 1 20.3 55 57,820 0 0 0 9.79 25.81 0 4.99 7.8 10.38
22:00 1 20.3 55 57,738 0 2.44 0 12.32 28.71 0 4.28 8.32 11.82
21:59 1 20.3 55 57,676 0.24 2 0 12.63 23.4 0 4.28 7.82 12.54
21:58 1 20.4 55 57,615 0 0.57 0 13.12 21.83 0 4.28 8.34 11.83
21:46 1 20.8 54 56,787 0 0 0 9.85 28 0 4.28 8.92 13.32
21:45 1 20.8 54 56,726 0 0 0 9.26 27.2 0 4.99 7.91 10.43
21:44 1 20.9 53 56,689 0 0 0 8.95 26.47 0 6.41 8.93 11.88
21:43 1 20.9 53 56,599 0 1.25 0 10.97 30.36 0 4.28 8.95 11.89
21:42 1 20.9 53 56,481 0 0 0 9.38 29.08 0 5.7 8.95 11.89
21:41 1 20.9 53 56,442 0 0 0 8.79 26.25 0 4.28 7.94 11.89
21:40 1 21 53 56,368 0 0 0 9.28 28.2 0 5.7 8.45 11.17
21:39 1 21 53 56,298 0 0 0 9.69 27.68 0 4.28 8.46 11.9
21:38 1 21 53 56,227 0 0 0 9.6 28.36 0 4.99 8.47 11.18
21:35 1 21.1 52 56,099 0 0 0 9.3 27.32 0 4.28 7.46 11.91
21:32 1 21.2 52 56,023 0 0 0 8.19 28.52 0 4.99 7.98 11.19
21:30 1 21.3 52 55,931 0 0.11 0 10.39 28.42 0 4.99 9.01 13.39